Current Version              Previous Version:    01  02  03  04  05  06  07  08  09  10  11  12  13  14  15  16  17  18  19  20  21  22  23  24  25  26  27  28  29  30  
   31  32  33  34  35  36  37  38  39  40  41  42  43  44  45  46  47  48  49  50  51  52  53  54  55  56  57  58  59  60  

[Printable]
526
ASUS44 KFWD 230710
RWRTX
NORTH TEXAS HOURLY WEATHER ROUNDUP
NATIONAL WEATHER SERVICE FORT WORTH TX
200 AM CDT WED APR 23 2014

NOTE: "FAIR" INDICATES FEW OR NO CLOUDS BELOW 12,000 FEET WITH NO
SIGNIFICANT WEATHER AND/OR OBSTRUCTIONS TO VISIBILITY.

TXZ118-119-230800-
DALLAS/FORT WORTH METROPLEX

CITY           SKY/WX    TMP DP  RH WIND       PRES   REMARKS
DFW AIRPORT    CLEAR     67  56  67 SE3       29.93F
DALLAS LOVE    CLEAR     65  56  72 SE6       29.93F
FTW MEACHAM    CLEAR     65  57  75 SE5       29.93F
DAL-EXECUTIVE  CLEAR     62  58  86 CALM      29.93F
FTW-ALLIANCE   PTCLDY    61  55  81 CALM      29.93F
FTW-NAS-JRB    CLEAR     67  59  75 CALM      29.97F
FTW-SPINKS     CLEAR     60  57  89 CALM      29.95F
ARLINGTON      CLEAR     58  56  93 CALM      29.94S
GRAND PRAIRIE  CLEAR     66  55  68 CALM      29.96F
ADDISON        CLEAR     68  54  60 CALM      29.96S
MESQUITE       CLEAR     60  56  89 CALM      29.94F
LANCASTER      CLEAR     59  56  91 CALM      29.95F
$$

TXZ091>094-102>105-117-120-121-131>134-230800-
NORTH CENTRAL TEXAS

CITY           SKY/WX    TMP DP  RH WIND       PRES   REMARKS
SHRMAN/DENISON CLEAR     62  46  57 E3        29.95F
GAINESVILLE    CLEAR     58  51  77 CALM      29.96F
BOWIE          CLEAR     59  53  79 CALM      29.94F
BRIDGEPORT     CLEAR     57  55  95 CALM      29.96S
DECATUR        CLEAR     64  53  68 SE5       29.94F
DENTON         CLEAR     60  56  86 CALM      29.94F
MCKINNEY       CLEAR     57  55  93 CALM      29.94F
GREENVILLE     CLEAR     57  54  88 CALM      29.94F
ROCKWALL       CLEAR     61  53  73 E5        29.93F
TERRELL        CLEAR     61  60  97 CALM      29.95S
WAXAHACHIE     CLEAR     59  57  93 CALM      29.95F
CLEBURNE       CLEAR     63  57  82 CALM      29.96F
GRANBURY       CLEAR     61  56  84 CALM      29.96S
$$

TXZ083>090-098>101-113>116-127>130-139>142-154-155-230800-
WESTERN NORTH TEXAS

CITY           SKY/WX    TMP DP  RH WIND       PRES   REMARKS
WICHITA FALLS  CLEAR     60  55  83 S7        29.92F
WF-KICKAPOO    CLEAR     61  55  81 SE6       29.93F
VERNON         CLEAR     63  55  73 SE8       29.91F
ABILENE        CLEAR     65  49  56 S14       29.93F
ABILENE-DYESS  CLEAR     64  49  58 S14       29.93F
BRECKENRIDGE   CLEAR     65  52  62 SE8       29.93S
GRAHAM         CLEAR     62  53  71 SE3       29.93S
MINERAL WELLS  CLEAR     61  55  81 SE8       29.93S
STEPHENVILLE   CLEAR     63  54  72 SE3       29.98F
COMANCHE       CLEAR     60  52  74 S7        29.96S
BROWNWOOD      PTCLDY    55  50  82 W3        29.95F
COLEMAN        CLEAR     63  51  66 SE6       29.96S
BRADY          CLEAR     63  52  67 SE5       29.96S
$$

TXZ143>147-156>162-174-175-230800-
CENTRAL TEXAS

CITY           SKY/WX    TMP DP  RH WIND       PRES   REMARKS
WACO           CLEAR     61  56  83 S3        29.94F
WACO-MCGREGOR  CLEAR     57  50  77 SW3       29.96F
HILLSBORO      CLEAR     66  55  69 E8        29.94F
CORSICANA      CLEAR     62  56  80 S3        29.96S
MEXIA          CLEAR     65  58  78 CALM      29.94S
HEARNE         CLEAR     60  58  91 CALM      29.95S
CAMERON        CLEAR     62  60  92 CALM      29.94S
TEMPLE         CLEAR     64  54  68 E5        29.97F
KILLEEN        CLEAR     63  55  77 E7        29.95F
KILLEEN-SKYLRK CLEAR    N/A N/A N/A E5        29.93S
GATESVILLE     CLEAR     63  57  82 CALM      29.97F
HAMILTON       CLEAR     60  52  76 SE9       29.97F
LAMPASAS       CLEAR     60  56  89 CALM      29.95F
$$

TXZ095>097-106>112-122>126-135>138-148>153-164>167-230800-
EAST TEXAS

CITY           SKY/WX    TMP DP  RH WIND       PRES   REMARKS
PARIS          CLEAR     61  48  63 NE6       29.95F
SULPHUR SPRNGS CLEAR     60  55  83 CALM      29.96F
CLARKSVILLE    CLEAR     59  53  82 CALM      29.95F
MOUNT PLEASANT CLEAR     59  59 100 CALM      29.95F
GILMER         DRIZZLE   61  59  94 CALM      29.96F
MINEOLA        CLEAR     59  57  94 CALM      29.96S
TYLER          CLEAR     63  56  78 CALM      29.94F
LONGVIEW       CLEAR     60  57  89 CALM      29.94F
MARSHALL       CLEAR     58  56  92 CALM      29.96F
ATHENS         CLEAR     59  55  88 CALM      29.94F
PALESTINE      CLEAR     59  55  87 CALM      29.97S
JACKSONVILLE   CLEAR     65  56  71 CALM      29.97S
HENDERSON      CLEAR     58  56  93 CALM      29.96S
NACOGDOCHES    CLEAR     55  52  88 CALM      29.96S
LUFKIN         CLEAR     63  58  83 CALM      29.95S
$$

SUPPLEMENTAL OBSERVATIONS (CENTRAL)

CITY           SKY/WX    TMP DP  RH WIND       PRES   REMARKS
CADDO GRASSLND   N/A     54  50  87 CALM        N/A
PAT MAYSE LAKE   N/A     57  52  82 CALM        N/A
MCGREGOR         N/A     64  57  77 E1          N/A
$$

SUPPLEMENTAL OBSERVATIONS (WEST)

CITY           SKY/WX    TMP DP  RH WIND       PRES   REMARKS
MILLERS CREEK    N/A     63  48  59 SE6         N/A
LBJ GRASSLAND    N/A     64  50  59 E6          N/A
HAMBY            N/A     64  48  55 SE8         N/A
IVIE RESERVOIR   N/A     63  48  59 E6          N/A
COLORADO BEND    N/A     63  55  77 SE3         N/A
$$

SUPPLEMENTAL OBSERVATIONS (EAST)

CITY           SKY/WX    TMP DP  RH WIND       PRES   REMARKS
CLARKSVILLE      N/A     61  46  59 NE1         N/A
TEXARKANA        N/A     54  52  94 CALM        N/A
LINDEN           N/A     57  54  88 CALM        N/A
GILMER           N/A     57  55  94 CALM        N/A
HENDERSON        N/A     57  55  94 CALM        N/A
LUFKIN           N/A     59  57  94 MISG        N/A
N SABINE NF      N/A     57  55  94 MISG        N/A
S SABINE NF      N/A     61  59  94 CALM        N/A
$$

SUPPLEMENTAL OBSERVATIONS ARE A COLLECTION OF AUTOMATED INSTRUMENTS
THAT ARE MAINTAINED BY A VARIETY OF FEDERAL AND STATE AGENCIES.
CERTAIN ELEMENTS...SUCH AS HUMIDITY VALUES AND SUSTAINED WIND
SPEEDS...MAY BE APPROXIMATED.




365
ASUS44 KLUB 230710
RWRTX
WEST TEXAS WEATHER ROUNDUP
NATIONAL WEATHER SERVICE LUBBOCK TX
200 AM CDT WED APR 23 2014

NOTE: "FAIR" INDICATES FEW OR NO CLOUDS BELOW 12,000 FEET WITH NO
SIGNIFICANT WEATHER AND/OR OBSTRUCTIONS TO VISIBILITY.

TXZ004-006>008-010-012-014-016-OKZ002-230800-
TEXAS PANHANDLE/OKLAHOMA PANHANDLE

CITY           SKY/WX    TMP DP  RH WIND       PRES   REMARKS
AMARILLO       CLEAR     64  38  38 S18       29.90F
BORGER         CLEAR     66  43  43 S20G32    29.85F
CANADIAN       CLEAR     65  53  64 S20G32    29.85S
DALHART        CLEAR     64  35  34 S18G28    29.87R
DUMAS          CLEAR     64  37  36 S18G26    29.86S
GUYMON         MOCLDY    65  43  44 S17       29.80F
HEREFORD       CLEAR     62  35  36 S17       29.90F
PAMPA          PTCLDY    61  47  60 S22G32    29.90F
PERRYTON       PTCLDY    63  49  59 S17       29.85F
$$

TXZ026-029-035-045-048-230800-
SOUTHERN PANHANDLE/SOUTH PLAINS/ROLLING PLAINS

CITY           SKY/WX    TMP DP  RH WIND       PRES   REMARKS
CHILDRESS      CLEAR     64  49  57 S14       29.90F
SEMINOLE       CLEAR     65  41  41 SE10      29.93S
LUBBOCK        PTCLDY    65  41  41 S17       29.92S
PLAINVIEW      CLEAR     60  39  46 S12       29.91S
SNYDER         CLEAR     69  48  46 SE15      29.93F
$$

TXZ052-054-060>062-072-078-127-140-154-169-230800-
PERMIAN BASIN/CONCHO VALLEY/BIG COUNTRY/EDWARDS PLATEAU

CITY           SKY/WX    TMP DP  RH WIND       PRES   REMARKS
ABILENE        CLEAR     65  49  56 S14       29.93F
BIG SPRING     CLEAR     69  45  41 SE16      29.93S
BRADY          CLEAR     63  52  67 SE5       29.96S
BROWNWOOD      PTCLDY    55  50  82 W3        29.95F
JUNCTION       CLEAR     66  54  65 CALM      29.95F
MIDLAND        CLEAR     68  47  46 SE14      29.91F
ODESSA           N/A    N/A N/A N/A MISG      29.91F
SAN ANGELO     CLEAR     68  50  52 SE8       29.93F
SONORA         CLEAR     70  52  52 SE7       29.94F
SWEETWATER     CLEAR     68  46  44 SE15      29.96F
WINK           CLEAR     71  45  39 SE13      29.85F
$$

TXZ055-058-074-075-080-082-230800-
FAR WEST/SOUTHWEST MOUNTAINS/TRANS PECOS

CITY           SKY/WX    TMP DP  RH WIND       PRES   REMARKS
ALPINE         CLEAR     68  47  47 S9        30.02R
DRYDEN           N/A     79  52  38 SE16G22   29.89S
EL PASO        MOCLDY    78  24  13 SW16      29.85R
FORT STOCKTON  CLEAR     72  49  44 SE16      29.89F
GUADALUPE PASS MOCLDY    67  41  38 S13G21    29.99F
MARFA          CLEAR     64  45  48 S7        30.02R
PECOS          CLEAR     63  51  65 E6        29.85F
PRESIDIO       FAIR      78  47  33 NE8       29.85F
$$

TXZ014-016-019-021>030-083-230800
TEXAS TECH WEST TEXAS MESONET/TEXAS PANHANDLE/NORTHERN SOUTH PLAINS

CITY           SKY/WX    TMP DP  RH WIND       PRES   REMARKS
ABERNATHY 5ENE   N/A     59  38  46 SE10      29.92S
AMARILLO 9NNE    N/A     65  39  37 S25       29.86F
AMARILLO 7SSE    N/A     63  38  39 S22       29.91S
AMHERST 1NE      N/A     63  39  41 SE16      29.91F
BOOTLEG 11WNW    N/A     60  38  42 S17       29.92F
CANADIAN 6E      N/A     62  51  66 SE14      29.86S
CAPROCK CYN SP   N/A     58  40  51 S7        29.90F
CHILDRESS 2NNE   N/A     61  53  73 SE13      29.89S
CLARENDON 2WSW   N/A     62  46  55 SE16      29.90F
CLAUDE 12SW      N/A     63  41  44 SE9       29.91F
DIMMITT 2NE      N/A     57  37  47 SE16      29.91F
FLOYDADA 2NNE    N/A     62  37  40 SE15      29.92S
FRIONA 2NE       N/A     60  37  43 S18       29.91F
GOODLETT 3W      N/A     63  52  67 SE13      29.88F
HART 3N          N/A     58  38  48 SE12      29.91F
HEREFORD 2NW     N/A     61  35  38 S15       29.90S
MCLEAN 1E        N/A     60  50  71 SE14      29.89F
MEMPHIS 1NE      N/A     61  51  71 E2        29.90F
MULESHOE 2SSW    N/A     63  38  39 SE18      29.90F
OLTON 6S         N/A     63  39  41 SE17      29.91F
PALO DURO SP     N/A     65  38  37 S12       29.92F
PAMPA 2E         N/A     59  49  69 SE17      29.90F
PLAINVIEW 1S     N/A     62  40  44 SE13      29.91F
SILVERTON 7ESE   N/A     64  40  40 SE17      29.91F
TULIA 2ENE       N/A     62  40  44 S17       29.90F
TURKEY 2WSW      N/A     60  44  54 E6        29.90S
UMBARGER 3NNE    N/A     63  38  39 S24       29.90F
$$

TXZ033>036-039>041-045>048-230800
TEXAS TECH WEST TEXAS MESONET/SOUTH PLAINS

CITY           SKY/WX    TMP DP  RH WIND       PRES   REMARKS
AIKEN 3WSW       N/A     60  41  50 S15       29.93S
ANDREWS 2NE      N/A     68  43  39 SE15      29.91F
ANTON 6SSW       N/A     63  42  46 SE18      29.91F
BROWNFIELD 2S    N/A     63  41  45 SE14      29.92F
DENVR CTY 7WNW   N/A     62  39  41 SE13      29.91F
GAIL 2ESE        N/A     65  44  45 SE13      29.90F
LAMESA 2SE       N/A     64  43  46 SE10      29.92S
LEVELLAND 4S     N/A     63  39  40 SE15      29.92S
LUBBOCK 3WNW     N/A     65  41  41 SE16      29.92S
MORTON 1ENE      N/A     64  38  39 SE16      29.91S
ODONNELL 1N      N/A     64  41  43 SE12      29.92S
PLAINS 3N        N/A     63  39  41 SE14      29.92F
RALLS 1SE        N/A     61  38  42 SE12      29.93F
REESE CENTER     N/A     64  41  43 SE18      29.91F
SEAGRAVES 1SW    N/A     63  42  46 SE10      29.91F
SEMINOLE 2NNE    N/A     64  41  43 SE13      29.91F
SLATON 2NE       N/A     63  41  44 SE14      29.92F
SNYDER 3E        N/A     65  45  49 SE13      29.91F
SUNDOWN 8SW      N/A     64  39  40 SE16      29.92S
TAHOKA 3NNE      N/A     65  42  42 SE15      29.92S
WOLFFORTH 6SSW   N/A     65  42  43 SE17      29.92F
$$

TXZ031-032-036>038-042>044-230800-
TEXAS TECH WEST TEXAS MESONET/ROLLING PLAINS

CITY           SKY/WX    TMP DP  RH WIND       PRES   REMARKS
ASPERMONT 3NE    N/A     65  44  45 SE8       29.91F
FLUVANNA 3WNW    N/A     66  42  42 SE16      29.91F
GRAHAM 5SSW      N/A     66  42  41 SE16      29.91F
GUTHRIE 10WSW    N/A     63  42  46 SE12      29.89F
HASKELL 1NW      N/A     66  47  51 SE9       29.91F
JAYTON 1SSE      N/A     66  43  42 SE10      29.90F
KNOX CITY 3NW    N/A     62  47  57 SE10      29.90F
LK A HENRY 1NW   N/A     68  45  42 S9        29.90S
NORTHFIELD 1S    N/A     64  46  52 SE13      29.89F
ODELL 4ENE       N/A     62  55  75 SE12      29.90F
PADUCAH 10SW     N/A     60  47  64 S8        29.90S
POST 1NE         N/A     67  42  39 S10       29.91F
SEYMOUR 3NW      N/A     64  52  65 SE12      29.91F
SPUR 1W          N/A     58  38  47 CALM      29.91S
WEINERT 2NNE     N/A     61  48  62 SE7       29.91F
WHITE RVR 6NE    N/A     63  38  40 SE6       29.92F
$$

TXZ052-054-060>062-072-078-127-140-154-169-230800-
TEXAS TECH WEST TEXAS MESONET/PERMIAN BASIN/
CONCHO VALLEY/BIG COUNTRY/EDWARDS PLATEAU

CITY           SKY/WX    TMP DP  RH WIND       PRES   REMARKS
COYANOSA 2N      N/A     70  47  45 SE8       29.87S
JUNCTION 1SSW    N/A     66  54  66 SE2       29.95F
MERTZON 3NNE     N/A     68  51  52 SE7       29.94F
SAN ANGELO 7NW   N/A     62  48  60 E6        29.94F
STRLNG CT 4WSW   N/A     67  48  51 SE10      29.93F
ST LAWRNCE 5SW   N/A     64  46  52 SE13      29.93F
SWEETWATR 11SW   N/A     66  47  49 SE14      29.94F
WALL 1E          N/A     65  48  52 SE12      29.93F
$$

TXZ055-058-074-075-080-082-230800-
TEXAS TECH WEST TEXAS MESONET/FAR WEST/SOUTHWEST MOUNTAINS/TRANS PECOS

CITY           SKY/WX    TMP DP  RH WIND       PRES   REMARKS
PRSMN GAP BBNP   N/A     73  48  40 N9        29.90S
$$